This is the latest recevied weather packets stored in our database for station/object GCEMA. If no packets are shown the sender has not sent any weather packets the latest 10 day(s).
| Time | Temp. | Humidity | Pressure | Rain* | Wind** | Luminosity | Snow |
|---|---|---|---|---|---|---|---|
| 1778268512 | 21.11° C | - | 1007.5 hPa | 0 mm | 0 m/s | - | - |
| 1778268333 | 20.56° C | - | 1007.5 hPa | 0 mm | 0 m/s | - | - |
| 1778267971 | 21.67° C | - | 1007.6 hPa | 0 mm | 0 m/s | - | - |
| 1778267612 | 22.22° C | - | 1007.7 hPa | 0 mm | 0 m/s | - | - |
| 1778267432 | 21.67° C | - | 1007.8 hPa | 0 mm | 0 m/s | - | - |
| 1778267253 | 22.78° C | - | 1007.7 hPa | 0 mm | 0 m/s | - | - |
| 1778267072 | 20.56° C | - | 1007.8 hPa | 0 mm | 0 m/s | - | - |
| 1778266891 | 20.56° C | - | 1007.9 hPa | 0 mm | 0 m/s | - | - |
| 1778266711 | 21.67° C | - | 1007.9 hPa | 0 mm | 0 m/s | - | - |
| 1778266531 | 23.33° C | - | 1007.8 hPa | 0 mm | 0 m/s | - | - |
| 1778266352 | 21.67° C | - | 1007.9 hPa | 0 mm | 0 m/s | - | - |
| 1778265992 | 21.11° C | - | 1008.2 hPa | 0 mm | 0 m/s | - | - |
| 1778265810 | 20.56° C | - | 1008.3 hPa | 0 mm | 0 m/s | - | - |
| 1778265631 | 22.22° C | - | 1008.4 hPa | 0 mm | 0 m/s | - | - |
| 1778265451 | 21.67° C | - | 1008.5 hPa | 0 mm | 0 m/s | - | - |
| 1778265269 | 20.56° C | - | 1008.5 hPa | 0 mm | 0 m/s | - | - |
| 1778264551 | 21.11° C | - | 1008.7 hPa | 0 mm | 0 m/s | - | - |
| 1778264368 | 20° C | - | 1008.7 hPa | 0 mm | 0 m/s | - | - |
| 1778264189 | 20° C | - | 1008.7 hPa | 0 mm | 0 m/s | - | - |
| 1778264009 | 20.56° C | - | 1008.7 hPa | 0 mm | 0 m/s | - | - |
| 1778263650 | 21.11° C | - | 1008.7 hPa | 0 mm | 0 m/s | - | - |
| 1778263468 | 20° C | - | 1008.8 hPa | 0 mm | 0 m/s | - | - |
| 1778263288 | 20.56° C | - | 1008.9 hPa | 0 mm | 0 m/s | - | - |
| 1778263109 | 20° C | - | 1009 hPa | 0 mm | 0 m/s | - | - |
| 1778262750 | 20.56° C | - | 1009.1 hPa | 0 mm | 0 m/s | - | - |
* Rain latest hour (hover to see other rain measurements)
** Current wind speed in m/s (hover to see current wind gust speed)